Showing default

GOSAT-GW, 64694

Orbit data source: Space-Track

GOSAT-GW, 64694 is a payload satellite owned by JAXA (JP) in SSO that was launched on Sat, 28 Jun 2025 UTC via an H-IIA 202 launch vehicle from the Tanegashima Space Center (TNSTA). Payload-class satellites include a variety of spacecraft equipped with specific instruments for various scientific and technological missions. These include communications satellites like Starlink; space stations such as the ISS; scientific satellites like the Hubble; Earth observation satellites from companies like Planet Labs, Umbra, and HawkEye 360; GPS; miniature CubeSats for education and research; and military/defense satellites.

Loading next visibility...
Identifier
64694, 2025-141A
Orbit
SSO
Country
Flag of JPJP / JPN
Related business
Manufacturer
MELCO
Mission
Operational Civil Earth Obs Sci
Bus & Motor
GOSAT, AOCS
Mass
2,900 kg wet, ~2,900 kg dry
Launch date (UTC)
2025-06-28 (5 months ago)
Launch vehicle
H-IIA 202
Launch site
Tanegashima Space Center (TNSTA)
Object type
Payload
Rocket body
Debris
Shape & HBR
Box + 2 Pan, 12.0 m
Radar Cross Section
21.792 m², Large (>1 m²)

Expand to show TLE details & history
Last TLE update: 5 days ago

TLE from 5 days ago
0 GOSAT-GW
1 64694U 25141A   25334.23717902  .00001074  00000-0  19762-3 0  9990
2 64694  98.0401 269.9775 0001437  82.9210 277.2158 14.67567435 22661
Epoch: 2025-11-30T05:41Z
TLE epoch observation values (Epoch: 2025-11-30T05:41:32.267Z)
Latitude
-0.00002°
Longitude
115.23914°
Altitude
671.718 km
Speed
7.521 km/s
True Right ascension
17h 59m 54s
True Declination
0° 00' 00"
Sunlit
Object was in daylight at epoch
Visualization orbit readout
Latitude
Unknown
Longitude
Unknown
Altitude
Unknown
Speed
Unknown
Apparent Right ascension
Unknown
Apparent Declination
Unknown
Sunlit
N/A
Visualization observer readout
Local Sidereal Time
12:48:12
Azimuth
Unknown
Elevation
Unknown
Doppler factor
Unknown
Orbital elements
Apogee altitude
666.92 km
Perigee altitude
664.896 km
Semi-major axis
7,044.045 km
Eccentricity
0.00014
Inclination
98.0401°
RAAN
269.9775°
Arg. of periapsis
82.921°
True anomaly
277.19946°
Mean anomaly
277.2158°
Eccentric anomaly
277.20763°
Mean motion
3.67122 °/min
Orbital period
98.06 mins
BSTAR
0.00019762
Loading maneuver chart data...
Computing Atmospheric mass density...
Loading historical data...
Loading historical data...
Loading historical data...
Loading historical data...
Loading historical data...
Loading historical data...
Loading historical data...
Other satellites on launch #141 in the year 2025 (2025-06-28 UTC)

Documentation

Showing up to 5 results
|